VOZ1602 YMHB-YPAD

Flight info

Callsign VOZ1602
Flight time 1h 45m
Altitude 32000
Route RIBLI2/30 RIBLI T234 BORTO H345 AD
Aircraft B738/M-SDE2E3FGHIRWXY/LB1

Departure

Time 2026-05-01 13:43
Airport Hobart International Airport (YMHB)

Arrival

Time 2026-05-01 15:29
Airport Adelaide International Airport (YPAD)
Time Latitude Longitude Altitude Speed Heading
2026-05-01 13:16 -42.83690 147.50615 21 ft 0 kts 224°
2026-05-01 13:29 -42.83673 147.50638 23 ft 4 kts 224°
2026-05-01 13:30 -42.83611 147.50633 22 ft 0 kts 135°
2026-05-01 13:35 -42.83623 147.50650 23 ft 7 kts 135°
2026-05-01 13:35 -42.83695 147.50758 21 ft 8 kts 109°
2026-05-01 13:36 -42.83681 147.50839 21 ft 12 kts 74°
2026-05-01 13:36 -42.83725 147.50958 22 ft 18 kts 135°
2026-05-01 13:36 -42.83836 147.51232 21 ft 12 kts 45°
2026-05-01 13:37 -42.83830 147.51239 23 ft 0 kts 44°
2026-05-01 13:38 -42.83826 147.51244 21 ft 6 kts 44°
2026-05-01 13:38 -42.83771 147.51339 21 ft 16 kts 78°
2026-05-01 13:38 -42.83838 147.51480 22 ft 19 kts 135°
2026-05-01 13:39 -42.83929 147.51604 22 ft 18 kts 135°
2026-05-01 13:39 -42.84018 147.51724 22 ft 18 kts 135°
2026-05-01 13:39 -42.84103 147.51839 22 ft 17 kts 135°
2026-05-01 13:39 -42.84185 147.51951 23 ft 16 kts 135°
2026-05-01 13:40 -42.84266 147.52056 22 ft 16 kts 134°
2026-05-01 13:40 -42.84340 147.52162 21 ft 15 kts 134°
2026-05-01 13:40 -42.84413 147.52261 23 ft 14 kts 135°
2026-05-01 13:40 -42.84502 147.52315 21 ft 14 kts 166°
2026-05-01 13:41 -42.84546 147.52387 21 ft 8 kts 63°
2026-05-01 13:41 -42.84507 147.52388 22 ft 10 kts 328°
2026-05-01 13:41 -42.84495 147.52373 21 ft 0 kts 316°
2026-05-01 13:42 -42.84445 147.52306 22 ft 37 kts 315°
2026-05-01 13:42 -42.84085 147.51817 22 ft 108 kts 315°
2026-05-01 13:42 -42.83404 147.50901 32 ft 165 kts 316°
2026-05-01 13:43 -42.82534 147.49754 517 ft 178 kts 317°
2026-05-01 13:43 -42.81639 147.48595 1329 ft 173 kts 315°
2026-05-01 13:43 -42.80822 147.47453 2137 ft 170 kts 317°
2026-05-01 13:43 -42.79924 147.46218 2418 ft 196 kts 316°
2026-05-01 13:44 -42.78912 147.44821 2703 ft 215 kts 316°
2026-05-01 13:44 -42.77833 147.43334 3111 ft 231 kts 316°
2026-05-01 13:44 -42.76680 147.41748 3687 ft 239 kts 316°
2026-05-01 13:44 -42.75513 147.40143 4585 ft 238 kts 315°
2026-05-01 13:45 -42.74346 147.38541 5471 ft 239 kts 315°
2026-05-01 13:45 -42.73167 147.36923 6258 ft 243 kts 315°
2026-05-01 13:45 -42.71967 147.35279 7049 ft 247 kts 315°
2026-05-01 13:45 -42.70744 147.33604 7633 ft 251 kts 315°
2026-05-01 13:46 -42.69506 147.31909 7967 ft 256 kts 315°
2026-05-01 13:46 -42.68242 147.30182 8166 ft 260 kts 315°
2026-05-01 13:46 -42.66958 147.28428 8866 ft 263 kts 315°
2026-05-01 13:46 -42.65656 147.26651 9632 ft 268 kts 315°
2026-05-01 13:47 -42.64328 147.24839 10294 ft 275 kts 315°
2026-05-01 13:47 -42.62921 147.22920 10496 ft 299 kts 315°
2026-05-01 13:47 -42.61396 147.20844 10680 ft 321 kts 315°
2026-05-01 13:47 -42.59767 147.18627 10860 ft 342 kts 315°
2026-05-01 13:48 -42.58052 147.16296 11294 ft 353 kts 315°
2026-05-01 13:48 -42.56351 147.13937 11938 ft 356 kts 315°
2026-05-01 13:48 -42.54631 147.11499 12619 ft 359 kts 315°
2026-05-01 13:48 -42.52879 147.09007 13301 ft 362 kts 315°
2026-05-01 13:49 -42.51150 147.06554 13956 ft 366 kts 315°
2026-05-01 13:49 -42.49354 147.04018 14530 ft 370 kts 315°
2026-05-01 13:49 -42.47570 147.01504 15165 ft 371 kts 315°
2026-05-01 13:49 -42.45751 146.99092 15816 ft 371 kts 318°
2026-05-01 13:50 -42.43835 146.96735 16456 ft 373 kts 320°
2026-05-01 13:50 -42.41888 146.94401 17087 ft 375 kts 320°
2026-05-01 13:50 -42.39931 146.92066 17679 ft 376 kts 320°
2026-05-01 13:50 -42.37966 146.89712 18267 ft 378 kts 320°
2026-05-01 13:51 -42.35996 146.87344 18816 ft 380 kts 320°
2026-05-01 13:51 -42.34017 146.84955 19295 ft 382 kts 320°
2026-05-01 13:51 -42.32027 146.82548 19714 ft 387 kts 320°
2026-05-01 13:51 -42.30009 146.80105 20146 ft 391 kts 320°
2026-05-01 13:52 -42.27977 146.77645 20599 ft 394 kts 320°
2026-05-01 13:52 -42.25928 146.75166 21039 ft 397 kts 320°
2026-05-01 13:52 -42.23865 146.72671 21473 ft 400 kts 320°
2026-05-01 13:52 -42.21783 146.70156 21888 ft 403 kts 320°
2026-05-01 13:53 -42.19682 146.67620 22305 ft 406 kts 320°
2026-05-01 13:53 -42.15438 146.62504 23096 ft 412 kts 320°
2026-05-01 13:53 -42.13293 146.59923 23482 ft 415 kts 320°
2026-05-01 13:54 -42.11128 146.57320 23851 ft 418 kts 320°
2026-05-01 13:54 -42.08950 146.54704 24158 ft 421 kts 320°
2026-05-01 13:54 -42.06756 146.52070 24236 ft 424 kts 320°
2026-05-01 13:54 -42.04560 146.49437 24247 ft 422 kts 320°
2026-05-01 13:55 -42.02367 146.46809 24251 ft 422 kts 320°
2026-05-01 13:55 -42.00174 146.44185 24251 ft 423 kts 320°
2026-05-01 13:55 -41.97977 146.41558 24253 ft 423 kts 320°
2026-05-01 13:55 -41.95777 146.38930 24257 ft 423 kts 320°
2026-05-01 13:56 -41.93569 146.36295 24300 ft 427 kts 320°
2026-05-01 13:56 -41.91339 146.33636 24617 ft 429 kts 320°
2026-05-01 13:56 -41.89118 146.30990 25059 ft 427 kts 320°
2026-05-01 13:56 -41.86892 146.28343 25467 ft 427 kts 320°
2026-05-01 13:57 -41.84690 146.25733 25785 ft 429 kts 320°
2026-05-01 13:57 -41.82416 146.23044 26094 ft 431 kts 319°
2026-05-01 13:57 -41.80194 146.20419 26420 ft 433 kts 319°
2026-05-01 13:57 -41.77932 146.17749 26719 ft 434 kts 319°
2026-05-01 13:58 -41.75660 146.15069 27028 ft 436 kts 319°
2026-05-01 13:58 -41.73386 146.12388 27332 ft 437 kts 319°
2026-05-01 13:58 -41.71100 146.09695 27685 ft 437 kts 319°
2026-05-01 13:58 -41.68826 146.07018 28146 ft 434 kts 319°
2026-05-01 13:59 -41.66567 146.04362 28638 ft 431 kts 319°
2026-05-01 13:59 -41.64319 146.01721 29053 ft 429 kts 319°
2026-05-01 13:59 -41.62077 145.99089 29448 ft 429 kts 319°
2026-05-01 13:59 -41.59840 145.96466 29903 ft 427 kts 319°
2026-05-01 14:00 -41.57617 145.93863 30372 ft 424 kts 319°
2026-05-01 14:00 -41.55402 145.91271 30733 ft 423 kts 319°
2026-05-01 14:00 -41.53194 145.88689 31053 ft 422 kts 319°
2026-05-01 14:00 -41.50985 145.86109 31334 ft 422 kts 319°
2026-05-01 14:01 -41.48778 145.83534 31693 ft 420 kts 319°
2026-05-01 14:01 -41.46582 145.80974 32063 ft 418 kts 319°
2026-05-01 14:01 -41.44392 145.78423 32246 ft 420 kts 319°
2026-05-01 14:01 -41.42184 145.75854 32247 ft 422 kts 319°
2026-05-01 14:02 -41.37760 145.70713 32239 ft 420 kts 320°
2026-05-01 14:02 -41.33375 145.65628 32240 ft 417 kts 320°
2026-05-01 14:03 -41.28996 145.60558 32236 ft 417 kts 320°
2026-05-01 14:03 -41.24621 145.55502 32229 ft 417 kts 320°
2026-05-01 14:04 -41.20247 145.50457 32227 ft 417 kts 320°
2026-05-01 14:04 -41.16606 145.46265 32216 ft 417 kts 320°
2026-05-01 14:05 -41.11477 145.40370 32215 ft 417 kts 320°
2026-05-01 14:05 -41.07112 145.35362 32210 ft 418 kts 320°
2026-05-01 14:06 -41.02707 145.30319 32208 ft 419 kts 320°
2026-05-01 14:06 -40.98299 145.25281 32199 ft 419 kts 320°
2026-05-01 14:07 -40.93884 145.20243 32194 ft 419 kts 320°
2026-05-01 14:08 -40.87250 145.12689 32184 ft 420 kts 320°
2026-05-01 14:08 -40.82815 145.07654 32184 ft 420 kts 320°
2026-05-01 14:09 -40.78362 145.02665 32183 ft 420 kts 320°
2026-05-01 14:09 -40.73895 144.97692 32177 ft 420 kts 320°
2026-05-01 14:10 -40.69428 144.92723 32174 ft 420 kts 320°
2026-05-01 14:10 -40.64957 144.87752 32171 ft 420 kts 320°
2026-05-01 14:11 -40.60486 144.82789 32167 ft 420 kts 320°
2026-05-01 14:11 -40.53783 144.75364 32164 ft 420 kts 321°
2026-05-01 14:12 -40.49305 144.70416 32158 ft 420 kts 321°
2026-05-01 14:12 -40.44834 144.65482 32156 ft 420 kts 321°
2026-05-01 14:13 -40.41114 144.61386 32154 ft 420 kts 321°
2026-05-01 14:13 -40.35881 144.55633 32154 ft 420 kts 321°
2026-05-01 14:14 -40.31434 144.50753 32150 ft 420 kts 321°
2026-05-01 14:14 -40.26952 144.45844 32151 ft 420 kts 321°
2026-05-01 14:15 -40.22470 144.40943 32150 ft 420 kts 321°
2026-05-01 14:15 -40.17982 144.36045 32148 ft 420 kts 321°
2026-05-01 14:16 -40.13492 144.31153 32144 ft 420 kts 321°
2026-05-01 14:16 -40.08995 144.26262 32146 ft 421 kts 321°
2026-05-01 14:17 -40.04490 144.21372 32143 ft 421 kts 321°
2026-05-01 14:17 -39.99981 144.16486 32143 ft 422 kts 321°
2026-05-01 14:18 -39.95462 144.11598 32139 ft 422 kts 321°
2026-05-01 14:18 -39.91705 144.07540 32139 ft 422 kts 321°
2026-05-01 14:19 -39.86407 144.01828 32134 ft 423 kts 321°
2026-05-01 14:19 -39.81871 143.96947 32138 ft 424 kts 322°
2026-05-01 14:20 -39.75045 143.89619 32132 ft 424 kts 322°
2026-05-01 14:21 -39.70494 143.84744 32135 ft 424 kts 322°
2026-05-01 14:21 -39.65933 143.79867 32129 ft 425 kts 322°
2026-05-01 14:22 -39.59084 143.72559 32122 ft 425 kts 322°
2026-05-01 14:22 -39.54521 143.67700 32121 ft 425 kts 322°
2026-05-01 14:23 -39.49949 143.62841 32120 ft 425 kts 322°
2026-05-01 14:23 -39.46152 143.58812 32114 ft 424 kts 322°
2026-05-01 14:24 -39.41586 143.53976 32114 ft 424 kts 322°
2026-05-01 14:24 -39.36280 143.48365 32113 ft 424 kts 322°
2026-05-01 14:25 -39.32462 143.44334 32112 ft 423 kts 322°
2026-05-01 14:25 -39.27900 143.39527 32112 ft 423 kts 322°
2026-05-01 14:26 -39.21068 143.32342 32109 ft 422 kts 322°
2026-05-01 14:27 -39.16548 143.27599 32106 ft 422 kts 322°
2026-05-01 14:27 -39.11969 143.22802 32107 ft 421 kts 322°
2026-05-01 14:28 -39.05176 143.15700 32107 ft 421 kts 322°
2026-05-01 14:28 -39.00629 143.10957 32104 ft 421 kts 322°
2026-05-01 14:29 -38.96084 143.06223 32100 ft 420 kts 322°
2026-05-01 14:30 -38.86929 142.96877 32100 ft 420 kts 324°
2026-05-01 14:31 -38.79821 142.90308 32098 ft 420 kts 325°
2026-05-01 14:31 -38.75084 142.85927 32095 ft 420 kts 324°
2026-05-01 14:32 -38.70359 142.81530 32093 ft 420 kts 324°
2026-05-01 14:32 -38.65635 142.77128 32093 ft 420 kts 324°
2026-05-01 14:33 -38.60912 142.72733 32096 ft 420 kts 324°
2026-05-01 14:33 -38.56186 142.68341 32090 ft 420 kts 324°
2026-05-01 14:34 -38.51460 142.63959 32089 ft 420 kts 324°
2026-05-01 14:34 -38.46768 142.59614 32087 ft 420 kts 324°
2026-05-01 14:35 -38.42042 142.55245 32087 ft 419 kts 324°
2026-05-01 14:35 -38.37319 142.50886 32084 ft 419 kts 324°
2026-05-01 14:36 -38.32592 142.46530 32080 ft 419 kts 324°
2026-05-01 14:36 -38.27866 142.42184 32080 ft 419 kts 324°
2026-05-01 14:37 -38.23149 142.37852 32081 ft 418 kts 324°
2026-05-01 14:37 -38.18432 142.33528 32076 ft 418 kts 324°
2026-05-01 14:38 -38.13719 142.29214 32077 ft 417 kts 324°
2026-05-01 14:38 -38.09010 142.24910 32077 ft 417 kts 324°
2026-05-01 14:39 -38.04308 142.20620 32073 ft 416 kts 324°
2026-05-01 14:39 -37.99613 142.16343 32070 ft 415 kts 324°
2026-05-01 14:40 -37.94924 142.12079 32073 ft 415 kts 324°
2026-05-01 14:40 -37.90238 142.07824 32071 ft 414 kts 324°
2026-05-01 14:41 -37.85555 142.03579 32073 ft 414 kts 324°
2026-05-01 14:41 -37.80875 141.99343 32067 ft 413 kts 324°
2026-05-01 14:42 -37.76197 141.95116 32068 ft 413 kts 324°
2026-05-01 14:42 -37.71516 141.90892 32066 ft 413 kts 324°
2026-05-01 14:43 -37.66836 141.86676 32063 ft 413 kts 324°
2026-05-01 14:43 -37.62157 141.82468 32066 ft 413 kts 324°
2026-05-01 14:44 -37.57479 141.78267 32064 ft 413 kts 324°
2026-05-01 14:44 -37.50458 141.71975 32063 ft 413 kts 324°
2026-05-01 14:45 -37.43438 141.65696 32060 ft 413 kts 324°
2026-05-01 14:46 -37.38759 141.61519 32058 ft 413 kts 324°
2026-05-01 14:46 -37.31730 141.55259 32055 ft 413 kts 325°
2026-05-01 14:47 -37.27044 141.51094 32053 ft 413 kts 325°
2026-05-01 14:48 -37.20034 141.44871 32051 ft 413 kts 325°
2026-05-01 14:48 -37.12998 141.38638 32048 ft 413 kts 325°
2026-05-01 14:49 -37.03610 141.30344 32043 ft 413 kts 325°
2026-05-01 14:50 -36.94219 141.22073 32040 ft 413 kts 325°
2026-05-01 14:51 -36.87177 141.15887 32041 ft 413 kts 326°
2026-05-01 14:52 -36.80135 141.09716 32035 ft 413 kts 326°
2026-05-01 14:53 -36.73072 141.03541 32034 ft 413 kts 326°
2026-05-01 14:53 -36.68368 140.99435 32032 ft 413 kts 326°
2026-05-01 14:54 -36.63658 140.95332 32029 ft 413 kts 326°
2026-05-01 14:54 -36.58946 140.91231 32027 ft 413 kts 326°
2026-05-01 14:55 -36.54227 140.87132 32023 ft 413 kts 326°
2026-05-01 14:55 -36.49508 140.83037 32022 ft 414 kts 326°
2026-05-01 14:56 -36.44791 140.78950 32021 ft 413 kts 326°
2026-05-01 14:56 -36.40151 140.74806 32017 ft 414 kts 320°
2026-05-01 14:57 -36.36264 140.69538 32029 ft 416 kts 310°
2026-05-01 14:57 -36.30956 140.61035 32012 ft 415 kts 310°
2026-05-01 14:58 -36.27399 140.55399 32017 ft 415 kts 310°
2026-05-01 14:58 -36.23835 140.49781 32007 ft 414 kts 310°
2026-05-01 14:59 -36.20274 140.44183 32011 ft 414 kts 310°
2026-05-01 14:59 -36.16715 140.38595 32007 ft 412 kts 311°
2026-05-01 15:00 -36.11396 140.30256 31996 ft 411 kts 311°
2026-05-01 15:01 -36.07858 140.24726 31992 ft 409 kts 311°
2026-05-01 15:01 -36.04326 140.19222 31993 ft 408 kts 311°
2026-05-01 15:01 -36.02559 140.16475 31839 ft 410 kts 311°
2026-05-01 15:02 -36.00787 140.13720 31478 ft 405 kts 311°
2026-05-01 15:02 -36.00198 140.12805 31308 ft 404 kts 311°
2026-05-01 15:02 -35.97323 140.08335 30571 ft 397 kts 311°
2026-05-01 15:02 -35.95612 140.05680 30123 ft 393 kts 311°
2026-05-01 15:03 -35.93918 140.03053 29599 ft 390 kts 311°
2026-05-01 15:03 -35.92234 140.00445 29100 ft 386 kts 311°
2026-05-01 15:03 -35.90573 139.97872 28636 ft 382 kts 311°
2026-05-01 15:03 -35.88924 139.95321 28157 ft 378 kts 311°
2026-05-01 15:04 -35.87293 139.92799 27708 ft 374 kts 311°
2026-05-01 15:04 -35.85695 139.90332 27257 ft 371 kts 311°
2026-05-01 15:04 -35.84068 139.87820 26801 ft 368 kts 311°
2026-05-01 15:04 -35.82475 139.85362 26356 ft 366 kts 311°
2026-05-01 15:05 -35.80894 139.82925 25921 ft 363 kts 311°
2026-05-01 15:05 -35.79346 139.80541 25501 ft 361 kts 311°
2026-05-01 15:05 -35.77779 139.78129 25049 ft 359 kts 311°
2026-05-01 15:05 -35.76222 139.75735 24626 ft 357 kts 311°
2026-05-01 15:06 -35.74672 139.73352 24186 ft 356 kts 311°
2026-05-01 15:06 -35.73125 139.70976 23748 ft 355 kts 311°
2026-05-01 15:06 -35.71581 139.68606 23259 ft 354 kts 311°
2026-05-01 15:06 -35.70046 139.66252 22788 ft 352 kts 311°
2026-05-01 15:07 -35.68519 139.63910 22339 ft 349 kts 311°
2026-05-01 15:07 -35.67004 139.61589 21914 ft 346 kts 311°
2026-05-01 15:07 -35.65502 139.59289 21487 ft 344 kts 311°
2026-05-01 15:07 -35.64011 139.57007 21072 ft 341 kts 311°
2026-05-01 15:08 -35.62533 139.54747 20660 ft 338 kts 311°
2026-05-01 15:08 -35.61064 139.52502 20257 ft 336 kts 311°
2026-05-01 15:08 -35.59603 139.50273 19843 ft 333 kts 311°
2026-05-01 15:08 -35.58156 139.48063 19447 ft 331 kts 311°
2026-05-01 15:09 -35.56717 139.45869 19050 ft 329 kts 311°
2026-05-01 15:09 -35.55283 139.43684 18661 ft 328 kts 311°
2026-05-01 15:09 -35.53856 139.41511 18264 ft 326 kts 311°
2026-05-01 15:09 -35.52434 139.39346 17809 ft 325 kts 311°
2026-05-01 15:10 -35.51021 139.37197 17384 ft 323 kts 311°
2026-05-01 15:10 -35.48220 139.32938 16577 ft 319 kts 311°
2026-05-01 15:10 -35.46830 139.30826 16186 ft 317 kts 311°
2026-05-01 15:11 -35.45451 139.28734 15800 ft 315 kts 311°
2026-05-01 15:11 -35.42717 139.24569 15020 ft 313 kts 309°
2026-05-01 15:11 -35.41560 139.22303 14491 ft 318 kts 299°
2026-05-01 15:12 -35.40668 139.19786 13974 ft 323 kts 295°
2026-05-01 15:12 -35.39236 139.15561 13233 ft 322 kts 295°
2026-05-01 15:12 -35.38377 139.13031 12824 ft 320 kts 295°
2026-05-01 15:13 -35.35825 139.05570 11670 ft 313 kts 295°
2026-05-01 15:14 -35.34146 139.00696 10931 ft 308 kts 295°
2026-05-01 15:14 -35.33312 138.98281 10581 ft 306 kts 295°
2026-05-01 15:14 -35.31725 138.93685 10373 ft 277 kts 295°
2026-05-01 15:15 -35.30273 138.89492 10162 ft 260 kts 295°
2026-05-01 15:15 -35.28899 138.85532 9902 ft 248 kts 295°
2026-05-01 15:16 -35.27547 138.81644 9276 ft 248 kts 296°
2026-05-01 15:16 -35.26194 138.77756 8668 ft 248 kts 296°
2026-05-01 15:17 -35.24839 138.73867 8064 ft 249 kts 297°
2026-05-01 15:18 -35.22875 138.68226 7134 ft 236 kts 298°
2026-05-01 15:18 -35.22225 138.66366 6794 ft 233 kts 299°
2026-05-01 15:19 -35.20355 138.61015 5769 ft 226 kts 300°
2026-05-01 15:19 -35.19125 138.57503 5062 ft 223 kts 301°
2026-05-01 15:19 -35.18518 138.55773 4722 ft 220 kts 301°
2026-05-01 15:20 -35.17324 138.52365 4033 ft 218 kts 302°
2026-05-01 15:20 -35.16725 138.50661 3684 ft 218 kts 302°
2026-05-01 15:20 -35.16134 138.48972 3383 ft 212 kts 303°
2026-05-01 15:21 -35.15563 138.47342 3057 ft 205 kts 303°
2026-05-01 15:21 -35.15014 138.45773 2880 ft 190 kts 303°
2026-05-01 15:21 -35.14513 138.44357 2906 ft 176 kts 308°
2026-05-01 15:21 -35.13743 138.43319 2994 ft 163 kts 331°
2026-05-01 15:22 -35.12002 138.41762 2973 ft 143 kts 331°
2026-05-01 15:22 -35.11216 138.41057 2980 ft 140 kts 331°
2026-05-01 15:22 -35.10416 138.40347 2997 ft 144 kts 332°
2026-05-01 15:23 -35.09583 138.39609 3010 ft 150 kts 332°
2026-05-01 15:23 -35.08738 138.38860 3002 ft 149 kts 332°
2026-05-01 15:23 -35.07906 138.38122 2990 ft 146 kts 331°
2026-05-01 15:23 -35.07060 138.37487 2971 ft 138 kts 351°
2026-05-01 15:24 -35.06113 138.37494 2936 ft 143 kts 10°
2026-05-01 15:24 -35.05246 138.38147 2778 ft 154 kts 38°
2026-05-01 15:24 -35.04551 138.39132 2591 ft 151 kts 39°
2026-05-01 15:24 -35.03876 138.40090 2389 ft 146 kts 39°
2026-05-01 15:25 -35.03222 138.41026 2230 ft 145 kts 39°
2026-05-01 15:25 -35.02560 138.41975 2060 ft 149 kts 40°
2026-05-01 15:25 -35.01900 138.42932 1890 ft 143 kts 40°
2026-05-01 15:25 -35.01288 138.43826 1692 ft 132 kts 40°
2026-05-01 15:26 -35.00711 138.44664 1559 ft 127 kts 38°
2026-05-01 15:26 -35.00148 138.45477 1426 ft 125 kts 39°
2026-05-01 15:26 -34.99576 138.46302 1227 ft 128 kts 41°
2026-05-01 15:26 -34.99005 138.47128 1042 ft 127 kts 44°
2026-05-01 15:27 -34.98422 138.47976 877 ft 132 kts 45°
2026-05-01 15:27 -34.97888 138.48796 723 ft 121 kts 45°
2026-05-01 15:27 -34.97327 138.49596 481 ft 122 kts 46°
2026-05-01 15:28 -34.96208 138.51204 232 ft 126 kts 46°
2026-05-01 15:28 -34.95639 138.52038 33 ft 126 kts 47°
2026-05-01 15:28 -34.95168 138.52719 21 ft 77 kts 50°
2026-05-01 15:29 -34.94697 138.53398 22 ft 42 kts 49°
2026-05-01 15:29 -34.94524 138.53649 22 ft 35 kts 50°
2026-05-01 15:29 -34.94274 138.54009 28 ft 20 kts 37°
2026-05-01 15:30 -34.94075 138.53903 25 ft 13 kts 321°
2026-05-01 15:31 -34.93957 138.53970 26 ft 11 kts 50°
2026-05-01 15:31 -34.93872 138.54036 29 ft 6 kts 323°
2026-05-01 15:32 -34.93829 138.53992 30 ft 0 kts 320°